Regional Weather Roundup
Issued by NWS Midland/Odessa, TX

Skip options and go directly to product.
Home | Oldest Version | Previous Version | Current Version | All | Text Only | Save Text | Print | Product List | Glossary On

Skip product version selection by date and time.   
199
ASUS44 KMAF 290510
RWRMAF
MIDLAND AREA WEATHER ROUNDUP
NATIONAL WEATHER SERVICE MIDLAND TX
1200 AM CDT SUN MAY 29 2016

...IN SOUTHWEST TEXAS AND SOUTHEAST NEW MEXICO...

CITY           SKY/WX    TMP DP  RH WIND       PRES   REMARKS
ALPINE         CLEAR     72  59  64 S9        30.11S
ANDREWS        FAIR      73  55  54 SE8       30.02R
ARTESIA        CLEAR     70  23  17 S9        30.00R
BIG SPRING     CLOUDY    75  61  60 E14       30.01R
CARLSBAD       CLEAR     71  32  23 S6        29.98R
DRYDEN           N/A     73  68  84 NE7       29.93S
FORT STOCKTON  NOT AVBL
GUAD PASS      NOT AVBL
HOBBS          CLEAR     73  57  56 SE10      30.04R
MARFA          CLEAR     67  56  67 E9        30.09R
MIDLAND AIRPK  CLOUDY    79  64  58 SE8       30.01S
MIDLAND INTL   PTCLDY    81  63  54 E14       30.01R
ODESSA         CLEAR     78  60  53 E8        30.02R
PECOS          CLEAR     79  64  59 E10       29.95R
PRESIDIO       FAIR      82  62  50 NE15G22   29.92R
SEMINOLE       CLEAR     71  49  45 SE6       30.04R
SNYDER           N/A     63  61  93 E15       30.05R
WINK           CLEAR     79  63  57 SE10      29.96R
$$
...OTHER STATIONS IN TEXAS...

CITY           SKY/WX    TMP DP  RH WIND       PRES   REMARKS
ABILENE        CLOUDY    77  69  76 SE14      30.00R
AMARILLO       CLEAR     62  49  62 SE12      30.08R
AUSTIN         CLOUDY    77  74  90 VRB3      30.05R THUNDER
BROWNSVILLE    CLOUDY    81  77  88 SE13      29.97S
CORPUS CHRISTI PTCLDY    79  75  87 SE12      29.98R
DALLAS FTW     CLOUDY    80  72  76 SE9       29.99S
DEL RIO        CLOUDY    82  75  79 E10       29.90R
EL PASO        PTCLDY    74   3   6 N7        29.98R
HOUSTON INT    CLOUDY    74  72  93 CALM      30.04R
LUBBOCK        PTCLDY    69  53  56 SE10      30.04F
SAN ANGELO     MOCLDY    72  63  73 SE9       29.99S
SAN ANTONIO    CLOUDY    78  72  81 E18       30.02R THUNDER
WACO           CLOUDY    79  72  79 S9        30.02R HAZE
WICHITA FALLS  NOT AVBL
$$
...OTHER LOCATIONS IN NEW MEXICO...

CITY           SKY/WX    TMP DP  RH WIND       PRES   REMARKS
ALAMAGORDO     CLEAR     66   9  10 E8        30.02S
ALBUQUERQUE    MOCLDY    70  17  13 E6        30.08R
CANNON AFB     CLEAR     66  48  52 E14       30.08R
CLOVIS         CLEAR     66  46  48 SE16G22   30.09R
HOLLOMAN AFB   CLEAR     60  11  14 E7        30.00R
ROSWELL        CLEAR     68  23  18 W3        29.99R
RUIDOSO          N/A     59   9  13 SW7       30.23S
SANTA FE       CLEAR     51  20  29 NW3       30.15R
TRUTH OR CONSE CLEAR     69   9   9 NW5       30.04R
TUCUMCARI      CLEAR     61  34  36 CALM      30.04R
$$

USA.gov is the U.S. government's official web portal to all federal, state and local government web resources and services.